Time,TemperatureF,DewpointF,PressureIn,WindDirection,WindDirectionDegrees,WindSpeedMPH,WindSpeedGustMPH,Humidity,HourlyPrecipIn,Conditions,Clouds,dailyrainin,SoftwareType,DateUTC
2013-11-17 00:00:00,60.4,57.8,30.02,SSW,200,8.0,13.0,91,0.00,,SKC,0.00,VWS V13.00,2013-11-17 06:00:00,
2013-11-17 00:01:00,60.4,57.8,30.02,South,176,2.0,13.0,91,0.00,,SKC,0.00,VWS V13.00,2013-11-17 06:01:00,
2013-11-17 00:06:00,60.4,57.8,30.02,SE,128,1.0,8.0,91,0.00,,SKC,0.00,VWS V13.00,2013-11-17 06:06:00,
2013-11-17 00:11:00,60.4,57.8,30.01,SSE,159,5.0,12.0,91,0.00,,SKC,0.00,VWS V13.00,2013-11-17 06:11:00,
2013-11-17 00:16:00,60.4,57.8,30.01,South,173,5.0,12.0,91,0.00,,SKC,0.00,VWS V13.00,2013-11-17 06:16:00,
2013-11-17 00:21:00,60.3,57.7,30.01,SSE,154,4.0,12.0,91,0.00,,SKC,0.00,VWS V13.00,2013-11-17 06:21:00,
2013-11-17 00:26:00,60.2,57.6,30.01,SSW,193,5.0,12.0,91,0.00,,SKC,0.00,VWS V13.00,2013-11-17 06:26:00,
2013-11-17 00:30:00,60.1,57.8,30.01,South,178,2.0,12.0,92,0.00,,SKC,0.00,VWS V13.00,2013-11-17 06:30:00,
2013-11-17 00:31:00,60.1,57.8,30.01,SSE,157,4.0,12.0,92,0.00,,SKC,0.00,VWS V13.00,2013-11-17 06:31:00,
2013-11-17 00:36:00,60.1,57.8,30.02,South,186,1.0,6.0,92,0.00,,SKC,0.00,VWS V13.00,2013-11-17 06:36:00,
2013-11-17 00:41:00,60.1,57.8,30.01,SSW,198,5.0,9.0,92,0.00,,SKC,0.00,VWS V13.00,2013-11-17 06:41:00,
2013-11-17 00:46:00,60.1,57.8,30.01,SSE,165,1.0,9.0,92,0.00,,SKC,0.00,VWS V13.00,2013-11-17 06:46:00,
2013-11-17 00:51:00,60.0,57.7,30.01,South,175,0.0,9.0,92,0.00,,SKC,0.00,VWS V13.00,2013-11-17 06:51:00,
2013-11-17 00:56:00,60.0,57.7,30.01,SSE,155,0.0,9.0,92,0.00,,SKC,0.00,VWS V13.00,2013-11-17 06:56:00,
2013-11-17 01:00:00,60.0,57.7,30.02,South,181,0.0,9.0,92,0.00,,SKC,0.00,VWS V13.00,2013-11-17 07:00:00,
2013-11-17 01:01:00,60.0,57.7,30.01,SSE,162,4.0,9.0,92,0.00,,SKC,0.00,VWS V13.00,2013-11-17 07:01:00,
2013-11-17 01:06:00,60.1,57.8,30.02,South,181,0.0,2.0,92,0.00,,SKC,0.00,VWS V13.00,2013-11-17 07:06:00,
2013-11-17 01:11:00,60.1,57.8,30.01,SSE,150,1.0,4.0,92,0.00,,SKC,0.00,VWS V13.00,2013-11-17 07:11:00,
2013-11-17 01:16:00,60.1,57.8,30.01,SSE,160,1.0,4.0,92,0.00,,SKC,0.00,VWS V13.00,2013-11-17 07:16:00,
2013-11-17 01:21:00,60.0,57.7,30.01,SE,146,1.0,4.0,92,0.00,,SKC,0.00,VWS V13.00,2013-11-17 07:21:00,
2013-11-17 01:26:00,60.0,57.7,30.01,SE,128,0.0,4.0,92,0.00,,SKC,0.00,VWS V13.00,2013-11-17 07:26:00,
2013-11-17 01:30:00,60.0,57.7,30.01,SE,133,4.0,4.0,92,0.00,,SKC,0.00,VWS V13.00,2013-11-17 07:30:00,
2013-11-17 01:31:00,60.0,57.7,30.01,SE,130,1.0,4.0,92,0.00,,SKC,0.00,VWS V13.00,2013-11-17 07:31:00,
2013-11-17 01:36:00,59.9,57.6,30.01,SE,139,2.0,4.0,92,0.00,,SKC,0.00,VWS V13.00,2013-11-17 07:36:00,
2013-11-17 01:41:00,59.8,57.8,30.00,ESE,118,2.0,5.0,93,0.00,,SKC,0.00,VWS V13.00,2013-11-17 07:41:00,
2013-11-17 01:46:00,59.8,57.8,30.00,ESE,107,0.0,5.0,93,0.00,,SKC,0.00,VWS V13.00,2013-11-17 07:46:00,
2013-11-17 01:51:00,59.7,57.7,30.00,SE,128,0.0,5.0,93,0.00,,SKC,0.00,VWS V13.00,2013-11-17 07:51:00,
2013-11-17 01:55:00,59.6,57.6,30.00,SE,136,0.0,5.0,93,0.00,,SKC,0.00,VWS V13.00,2013-11-17 07:55:00,
2013-11-17 02:00:00,59.6,57.6,30.00,SE,129,1.0,5.0,93,0.00,,SKC,0.00,VWS V13.00,2013-11-17 08:00:00,
2013-11-17 02:05:00,59.5,57.5,30.00,ESE,113,2.0,2.0,93,0.00,,SKC,0.00,VWS V13.00,2013-11-17 08:05:00,
2013-11-17 02:10:00,59.5,57.5,30.00,East,98,1.0,5.0,93,0.00,,SKC,0.00,VWS V13.00,2013-11-17 08:10:00,
2013-11-17 02:15:00,59.5,57.5,30.00,East,96,0.0,5.0,93,0.00,,SKC,0.00,VWS V13.00,2013-11-17 08:15:00,
2013-11-17 02:20:00,59.5,57.8,29.99,SE,141,0.0,5.0,94,0.00,,SKC,0.00,VWS V13.00,2013-11-17 08:20:00,
2013-11-17 02:25:00,59.5,57.8,29.99,SE,127,0.0,5.0,94,0.00,,SKC,0.00,VWS V13.00,2013-11-17 08:25:00,
2013-11-17 02:30:00,59.6,57.9,29.99,SE,136,0.0,5.0,94,0.00,,SKC,0.00,VWS V13.00,2013-11-17 08:30:00,
2013-11-17 02:35:00,59.6,57.9,29.99,ESE,102,0.0,5.0,94,0.00,,SKC,0.00,VWS V13.00,2013-11-17 08:35:00,
2013-11-17 02:40:00,59.7,58.0,29.99,ESE,117,0.0,5.0,94,0.00,,SKC,0.00,VWS V13.00,2013-11-17 08:40:00,
2013-11-17 02:45:00,59.8,58.1,29.99,SE,131,1.0,5.0,94,0.00,,SKC,0.00,VWS V13.00,2013-11-17 08:45:00,
2013-11-17 02:50:00,59.9,58.2,29.99,SSE,155,0.0,5.0,94,0.00,,SKC,0.00,VWS V13.00,2013-11-17 08:50:00,
2013-11-17 02:55:00,60.1,58.4,29.98,SSE,150,0.0,5.0,94,0.00,,SKC,0.00,VWS V13.00,2013-11-17 08:55:00,
2013-11-17 03:00:00,60.3,58.3,29.98,SSE,148,2.0,6.0,93,0.00,,SKC,0.00,VWS V13.00,2013-11-17 09:00:00,
2013-11-17 03:01:00,60.3,58.6,29.98,ESE,118,0.0,6.0,94,0.00,,SKC,0.00,VWS V13.00,2013-11-17 09:01:00,
2013-11-17 03:06:00,60.4,58.4,29.98,SE,145,3.0,5.0,93,0.00,,SKC,0.00,VWS V13.00,2013-11-17 09:06:00,
2013-11-17 03:11:00,60.6,58.6,29.97,ESE,113,5.0,6.0,93,0.00,,SKC,0.00,VWS V13.00,2013-11-17 09:11:00,
2013-11-17 03:16:00,60.8,58.8,29.97,SSE,148,1.0,6.0,93,0.00,,SKC,0.00,VWS V13.00,2013-11-17 09:16:00,
2013-11-17 03:21:00,60.9,58.9,29.98,SE,134,0.0,6.0,93,0.00,,SKC,0.00,VWS V13.00,2013-11-17 09:21:00,
2013-11-17 03:26:00,61.1,59.1,29.98,South,179,2.0,7.0,93,0.00,,SKC,0.00,VWS V13.00,2013-11-17 09:26:00,
2013-11-17 03:30:00,61.3,59.3,29.98,South,181,0.0,7.0,93,0.00,,SKC,0.00,VWS V13.00,2013-11-17 09:30:00,
2013-11-17 03:31:00,61.2,59.2,29.98,South,181,0.0,7.0,93,0.00,,SKC,0.00,VWS V13.00,2013-11-17 09:31:00,
2013-11-17 03:36:00,61.3,59.3,29.98,SSW,192,4.0,5.0,93,0.00,,SKC,0.00,VWS V13.00,2013-11-17 09:36:00,
2013-11-17 03:41:00,61.4,59.4,29.98,SSE,163,4.0,5.0,93,0.00,,SKC,0.00,VWS V13.00,2013-11-17 09:41:00,
2013-11-17 03:46:00,61.5,59.2,29.97,South,172,0.0,6.0,92,0.00,,SKC,0.00,VWS V13.00,2013-11-17 09:46:00,
2013-11-17 03:51:00,61.6,59.3,29.98,South,170,2.0,6.0,92,0.00,,SKC,0.00,VWS V13.00,2013-11-17 09:51:00,
2013-11-17 03:56:00,61.7,59.7,29.98,SSE,163,5.0,6.0,93,0.00,,SKC,0.00,VWS V13.00,2013-11-17 09:56:00,
2013-11-17 04:00:00,61.8,59.8,29.98,South,179,2.0,6.0,93,0.00,,SKC,0.00,VWS V13.00,2013-11-17 10:00:00,
2013-11-17 04:01:00,61.8,59.8,29.98,South,173,1.0,6.0,93,0.00,,SKC,0.00,VWS V13.00,2013-11-17 10:01:00,
2013-11-17 04:06:00,61.9,59.9,29.98,South,181,7.0,8.0,93,0.00,,SKC,0.00,VWS V13.00,2013-11-17 10:06:00,
2013-11-17 04:11:00,62.0,59.7,29.97,South,181,0.0,10.0,92,0.00,,SKC,0.00,VWS V13.00,2013-11-17 10:11:00,
2013-11-17 04:16:00,62.0,60.0,29.97,SSE,159,0.0,10.0,93,0.00,,SKC,0.00,VWS V13.00,2013-11-17 10:16:00,
2013-11-17 04:20:00,62.1,60.1,29.97,South,184,5.0,10.0,93,0.00,,SKC,0.00,VWS V13.00,2013-11-17 10:20:00,
2013-11-17 04:25:00,62.1,60.1,29.97,South,184,7.0,10.0,93,0.00,,SKC,0.00,VWS V13.00,2013-11-17 10:25:00,
2013-11-17 04:30:00,62.2,60.2,29.97,SSE,157,7.0,10.0,93,0.00,,SKC,0.00,VWS V13.00,2013-11-17 10:30:00,
2013-11-17 04:35:00,62.2,60.2,29.97,South,187,7.0,7.0,93,0.00,,SKC,0.00,VWS V13.00,2013-11-17 10:35:00,
2013-11-17 04:40:00,62.2,60.2,29.96,SSE,165,5.0,8.0,93,0.00,,SKC,0.00,VWS V13.00,2013-11-17 10:40:00,
2013-11-17 04:45:00,62.2,60.2,29.96,South,173,8.0,8.0,93,0.00,,SKC,0.00,VWS V13.00,2013-11-17 10:45:00,
2013-11-17 04:50:00,62.2,60.2,29.96,South,170,2.0,8.0,93,0.00,,SKC,0.00,VWS V13.00,2013-11-17 10:50:00,
2013-11-17 04:55:00,62.2,60.2,29.96,SSE,162,2.0,9.0,93,0.00,,SKC,0.00,VWS V13.00,2013-11-17 10:55:00,
2013-11-17 05:00:00,62.3,60.2,29.96,SSW,192,5.0,9.0,93,0.00,,SKC,0.00,VWS V13.00,2013-11-17 11:00:00,
2013-11-17 05:05:00,62.4,60.3,29.95,SSE,153,0.0,9.0,93,0.00,,SKC,0.00,VWS V13.00,2013-11-17 11:05:00,
2013-11-17 05:10:00,62.4,60.3,29.94,SSE,148,0.0,9.0,93,0.00,,SKC,0.00,VWS V13.00,2013-11-17 11:10:00,
2013-11-17 05:15:00,62.5,60.5,29.94,ESE,106,5.0,9.0,93,0.00,,SKC,0.00,VWS V13.00,2013-11-17 11:15:00,
2013-11-17 05:20:00,62.6,60.5,29.94,South,175,4.0,9.0,93,0.00,,SKC,0.00,VWS V13.00,2013-11-17 11:20:00,
2013-11-17 05:25:00,62.7,60.3,29.94,SSW,213,6.0,10.0,92,0.00,,SKC,0.00,VWS V13.00,2013-11-17 11:25:00,
2013-11-17 05:30:00,62.7,60.3,29.94,South,183,5.0,10.0,92,0.00,,SKC,0.00,VWS V13.00,2013-11-17 11:30:00,
2013-11-17 05:35:00,62.9,60.5,29.94,SSW,209,6.0,11.0,92,0.00,,SKC,0.00,VWS V13.00,2013-11-17 11:35:00,
2013-11-17 05:40:00,63.0,60.6,29.95,SSE,160,2.0,11.0,92,0.00,,SKC,0.00,VWS V13.00,2013-11-17 11:40:00,
2013-11-17 05:45:00,63.1,60.7,29.96,SSE,155,6.0,11.0,92,0.00,,SKC,0.00,VWS V13.00,2013-11-17 11:45:00,
2013-11-17 05:50:00,63.2,60.5,29.95,South,184,2.0,11.0,91,0.00,,SKC,0.00,VWS V13.00,2013-11-17 11:50:00,
2013-11-17 05:55:00,63.2,60.5,29.95,SSE,161,1.0,11.0,91,0.00,,SKC,0.00,VWS V13.00,2013-11-17 11:55:00,
2013-11-17 06:00:00,63.2,60.5,29.94,South,176,4.0,14.0,91,0.00,,SKC,0.00,VWS V13.00,2013-11-17 12:00:00,
2013-11-17 06:05:00,63.3,60.6,29.94,SSW,196,0.0,13.0,91,0.00,,SKC,0.00,VWS V13.00,2013-11-17 12:05:00,
2013-11-17 06:10:00,63.3,60.6,29.94,SSE,165,9.0,13.0,91,0.00,,SKC,0.00,VWS V13.00,2013-11-17 12:10:00,
2013-11-17 06:15:00,63.3,60.6,29.94,SE,144,3.0,13.0,91,0.00,,SKC,0.00,VWS V13.00,2013-11-17 12:15:00,
2013-11-17 06:20:00,63.2,60.8,29.94,South,173,8.0,13.0,92,0.00,,SKC,0.00,VWS V13.00,2013-11-17 12:20:00,
2013-11-17 06:25:00,63.0,61.0,29.94,SSW,207,7.0,13.0,93,0.00,,SKC,0.00,VWS V13.00,2013-11-17 12:25:00,
2013-11-17 06:30:00,62.7,61.0,29.93,South,170,5.0,14.0,94,0.00,,SKC,0.00,VWS V13.00,2013-11-17 12:30:00,
2013-11-17 06:35:00,62.5,61.0,29.93,South,181,14.0,18.0,95,0.00,,SKC,0.00,VWS V13.00,2013-11-17 12:35:00,
2013-11-17 06:40:00,62.3,60.8,29.93,SSW,192,7.0,18.0,95,0.00,,SKC,0.00,VWS V13.00,2013-11-17 12:40:00,
2013-11-17 06:45:00,62.3,61.2,29.94,SSE,166,7.0,18.0,96,0.00,,SKC,0.00,VWS V13.00,2013-11-17 12:45:00,
2013-11-17 06:50:00,62.2,61.0,29.94,SSW,206,6.0,18.0,96,0.00,,SKC,0.00,VWS V13.00,2013-11-17 12:50:00,
2013-11-17 06:55:00,62.2,61.0,29.94,South,186,9.0,18.0,96,0.00,,SKC,0.00,VWS V13.00,2013-11-17 12:55:00,
2013-11-17 07:00:00,62.2,61.3,29.94,SSE,153,8.0,18.0,97,0.00,,SKC,0.00,VWS V13.00,2013-11-17 13:00:00,
2013-11-17 07:05:00,62.1,61.2,29.94,South,169,6.0,13.0,97,0.00,,SKC,0.00,VWS V13.00,2013-11-17 13:05:00,
2013-11-17 07:10:00,62.1,61.2,29.94,South,177,1.0,13.0,97,0.00,,SKC,0.00,VWS V13.00,2013-11-17 13:10:00,
2013-11-17 07:15:00,62.2,61.3,29.94,South,186,13.0,13.0,97,0.00,,SKC,0.00,VWS V13.00,2013-11-17 13:15:00,
2013-11-17 07:20:00,62.2,61.3,29.94,SSW,213,8.0,13.0,97,0.00,,SKC,0.00,VWS V13.00,2013-11-17 13:20:00,
2013-11-17 07:25:00,62.3,61.4,29.93,SSW,192,7.0,13.0,97,0.00,,SKC,0.00,VWS V13.00,2013-11-17 13:25:00,
2013-11-17 07:30:00,62.3,61.4,29.93,SSE,167,4.0,13.0,97,0.00,,SKC,0.00,VWS V13.00,2013-11-17 13:30:00,
2013-11-17 07:35:00,62.3,61.4,29.94,SSW,192,9.0,9.0,97,0.00,,SKC,0.00,VWS V13.00,2013-11-17 13:35:00,
2013-11-17 07:40:00,62.4,61.5,29.94,SSE,165,6.0,13.0,97,0.00,,SKC,0.00,VWS V13.00,2013-11-17 13:40:00,
2013-11-17 07:45:00,62.5,61.6,29.94,South,185,7.0,13.0,97,0.00,,SKC,0.00,VWS V13.00,2013-11-17 13:45:00,
2013-11-17 07:50:00,62.6,61.7,29.94,South,169,5.0,13.0,97,0.00,,SKC,0.00,VWS V13.00,2013-11-17 13:50:00,
2013-11-17 07:55:00,62.7,62.1,29.95,South,173,5.0,15.0,98,0.00,,SKC,0.00,VWS V13.00,2013-11-17 13:55:00,
2013-11-17 08:00:00,62.7,61.8,29.94,SSW,208,8.0,15.0,97,0.00,,SKC,0.00,VWS V13.00,2013-11-17 14:00:00,
2013-11-17 08:05:00,62.8,62.2,29.94,SSE,157,8.0,9.0,98,0.00,,SKC,0.00,VWS V13.00,2013-11-17 14:05:00,
2013-11-17 08:10:00,62.8,62.2,29.94,SSE,161,3.0,10.0,98,0.00,,SKC,0.00,VWS V13.00,2013-11-17 14:10:00,
2013-11-17 08:15:00,62.9,62.3,29.95,SSW,213,6.0,11.0,98,0.00,,SKC,0.00,VWS V13.00,2013-11-17 14:15:00,
2013-11-17 08:20:00,63.0,62.1,29.94,SSE,156,4.0,11.0,97,0.00,,SKC,0.00,VWS V13.00,2013-11-17 14:20:00,
2013-11-17 08:25:00,63.0,62.1,29.94,South,176,6.0,13.0,97,0.00,,SKC,0.00,VWS V13.00,2013-11-17 14:25:00,
2013-11-17 08:30:00,63.1,62.2,29.94,SSW,192,6.0,13.0,97,0.00,,SKC,0.00,VWS V13.00,2013-11-17 14:30:00,
2013-11-17 08:35:00,63.2,62.3,29.94,SSW,199,11.0,11.0,97,0.00,,SKC,0.00,VWS V13.00,2013-11-17 14:35:00,
2013-11-17 08:40:00,63.2,62.3,29.94,South,180,8.0,11.0,97,0.00,,SKC,0.00,VWS V13.00,2013-11-17 14:40:00,
2013-11-17 08:45:00,63.2,62.6,29.94,South,188,2.0,11.0,98,0.00,,SKC,0.00,VWS V13.00,2013-11-17 14:45:00,
2013-11-17 08:50:00,63.3,62.4,29.95,SSW,200,8.0,11.0,97,0.00,,SKC,0.00,VWS V13.00,2013-11-17 14:50:00,
2013-11-17 08:55:00,63.3,62.4,29.95,South,181,9.0,11.0,97,0.00,,SKC,0.00,VWS V13.00,2013-11-17 14:55:00,
2013-11-17 09:00:00,63.3,62.4,29.95,SSW,213,3.0,11.0,97,0.00,,SKC,0.00,VWS V13.00,2013-11-17 15:00:00,
2013-11-17 09:05:00,63.3,62.7,29.95,South,182,6.0,10.0,98,0.00,,SKC,0.00,VWS V13.00,2013-11-17 15:05:00,
2013-11-17 09:10:00,63.3,62.7,29.96,SSW,207,7.0,10.0,98,0.00,,SKC,0.00,VWS V13.00,2013-11-17 15:10:00,
2013-11-17 09:15:00,63.4,62.8,29.96,South,186,5.0,12.0,98,0.00,,SKC,0.00,VWS V13.00,2013-11-17 15:15:00,
2013-11-17 09:20:00,63.4,62.5,29.95,South,178,9.0,12.0,97,0.00,,SKC,0.00,VWS V13.00,2013-11-17 15:20:00,
2013-11-17 09:25:00,63.5,62.6,29.95,South,178,6.0,16.0,97,0.00,,SKC,0.00,VWS V13.00,2013-11-17 15:25:00,
2013-11-17 09:30:00,63.5,62.6,29.95,SSW,205,8.0,16.0,97,0.00,,SKC,0.00,VWS V13.00,2013-11-17 15:30:00,
2013-11-17 09:35:00,63.5,62.6,29.95,SSW,204,8.0,12.0,97,0.00,,SKC,0.00,VWS V13.00,2013-11-17 15:35:00,
2013-11-17 09:40:00,63.5,62.6,29.95,SSW,200,5.0,14.0,97,0.00,,SKC,0.00,VWS V13.00,2013-11-17 15:40:00,
2013-11-17 09:45:00,63.6,62.7,29.95,South,173,11.0,14.0,97,0.00,,SKC,0.00,VWS V13.00,2013-11-17 15:45:00,
2013-11-17 09:50:00,63.6,62.7,29.94,South,175,6.0,14.0,97,0.00,,SKC,0.00,VWS V13.00,2013-11-17 15:50:00,
2013-11-17 09:55:00,63.7,62.8,29.94,SSW,210,6.0,14.0,97,0.00,,SKC,0.00,VWS V13.00,2013-11-17 15:55:00,
2013-11-17 10:00:00,63.7,62.8,29.94,South,182,6.0,14.0,97,0.00,,SKC,0.00,VWS V13.00,2013-11-17 16:00:00,
2013-11-17 10:05:00,63.7,62.8,29.94,SW,220,8.0,10.0,97,0.00,,SKC,0.00,VWS V13.00,2013-11-17 16:05:00,
2013-11-17 10:10:00,63.7,62.8,29.94,South,177,6.0,13.0,97,0.00,,SKC,0.00,VWS V13.00,2013-11-17 16:10:00,
2013-11-17 10:15:00,63.7,62.8,29.94,South,185,6.0,13.0,97,0.00,,SKC,0.00,VWS V13.00,2013-11-17 16:15:00,
2013-11-17 10:20:00,63.7,62.8,29.93,SSW,201,5.0,13.0,97,0.00,,SKC,0.00,VWS V13.00,2013-11-17 16:20:00,
2013-11-17 10:25:00,63.8,62.9,29.94,SW,218,5.0,13.0,97,0.00,,SKC,0.00,VWS V13.00,2013-11-17 16:25:00,
2013-11-17 10:30:00,63.8,62.9,29.93,SSW,198,7.0,13.0,97,0.00,,SKC,0.00,VWS V13.00,2013-11-17 16:30:00,
2013-11-17 10:35:00,63.8,62.9,29.93,SW,219,9.0,11.0,97,0.00,,SKC,0.00,VWS V13.00,2013-11-17 16:35:00,
2013-11-17 10:40:00,63.8,63.2,29.92,SE,142,10.0,12.0,98,0.00,,SKC,0.00,VWS V13.00,2013-11-17 16:40:00,
2013-11-17 10:45:00,63.8,63.2,29.93,South,180,7.0,12.0,98,0.00,,SKC,0.00,VWS V13.00,2013-11-17 16:45:00,
2013-11-17 10:50:00,63.9,63.3,29.92,SSW,195,5.0,12.0,98,0.00,,SKC,0.00,VWS V13.00,2013-11-17 16:50:00,
2013-11-17 10:55:00,64.0,63.4,29.92,South,177,5.0,12.0,98,0.00,,SKC,0.00,VWS V13.00,2013-11-17 16:55:00,
2013-11-17 11:00:00,64.0,63.4,29.92,SSE,163,5.0,13.0,98,0.00,,SKC,0.00,VWS V13.00,2013-11-17 17:00:00,
2013-11-17 11:05:00,64.1,63.5,29.92,SSE,159,6.0,10.0,98,0.01,,SKC,0.01,VWS V13.00,2013-11-17 17:05:00,
2013-11-17 11:10:00,64.1,63.5,29.92,SSW,203,5.0,15.0,98,0.01,,SKC,0.01,VWS V13.00,2013-11-17 17:10:00,
2013-11-17 11:15:00,64.2,63.6,29.91,SSW,209,7.0,15.0,98,0.01,,SKC,0.01,VWS V13.00,2013-11-17 17:15:00,
2013-11-17 11:20:00,64.3,63.7,29.91,South,182,6.0,15.0,98,0.01,,SKC,0.01,VWS V13.00,2013-11-17 17:20:00,
2013-11-17 11:25:00,64.4,63.8,29.91,South,190,7.0,15.0,98,0.01,,SKC,0.01,VWS V13.00,2013-11-17 17:25:00,
2013-11-17 11:30:00,64.4,63.8,29.91,SW,217,5.0,15.0,98,0.01,,SKC,0.01,VWS V13.00,2013-11-17 17:30:00,
2013-11-17 11:35:00,64.5,63.9,29.90,SSE,155,6.0,13.0,98,0.01,,SKC,0.01,VWS V13.00,2013-11-17 17:35:00,
2013-11-17 11:40:00,64.6,64.0,29.90,SSW,209,6.0,15.0,98,0.01,,SKC,0.01,VWS V13.00,2013-11-17 17:40:00,
2013-11-17 11:45:00,64.7,64.1,29.89,SW,219,7.0,18.0,98,0.01,,SKC,0.01,VWS V13.00,2013-11-17 17:45:00,
2013-11-17 11:50:00,64.8,64.2,29.89,SSW,203,5.0,18.0,98,0.01,,SKC,0.01,VWS V13.00,2013-11-17 17:50:00,
2013-11-17 11:54:00,64.9,64.3,29.87,South,184,10.0,18.0,98,0.01,,SKC,0.01,VWS V13.00,2013-11-17 17:54:00,
2013-11-17 11:59:00,64.9,64.3,29.87,South,190,4.0,18.0,98,0.01,,SKC,0.01,VWS V13.00,2013-11-17 17:59:00,
2013-11-17 12:00:00,64.9,64.3,29.87,South,177,6.0,18.0,98,0.01,,SKC,0.01,VWS V13.00,2013-11-17 18:00:00,
2013-11-17 12:04:00,64.9,64.3,29.87,SSW,204,6.0,11.0,98,0.00,,SKC,0.01,VWS V13.00,2013-11-17 18:04:00,
2013-11-17 12:09:00,64.9,64.3,29.87,South,176,7.0,14.0,98,0.00,,SKC,0.01,VWS V13.00,2013-11-17 18:09:00,
2013-11-17 12:14:00,64.9,64.3,29.87,South,190,7.0,15.0,98,0.00,,SKC,0.01,VWS V13.00,2013-11-17 18:14:00,
2013-11-17 12:19:00,64.9,64.3,29.88,South,174,8.0,15.0,98,0.00,,SKC,0.01,VWS V13.00,2013-11-17 18:19:00,
2013-11-17 12:24:00,64.9,64.3,29.88,South,179,13.0,15.0,98,0.00,,SKC,0.01,VWS V13.00,2013-11-17 18:24:00,
2013-11-17 12:29:00,65.0,64.4,29.87,SSE,166,6.0,15.0,98,0.01,,SKC,0.02,VWS V13.00,2013-11-17 18:29:00,
2013-11-17 12:30:00,65.0,64.4,29.87,SSW,207,4.0,15.0,98,0.01,,SKC,0.02,VWS V13.00,2013-11-17 18:30:00,
2013-11-17 12:34:00,64.9,64.3,29.87,South,186,4.0,9.0,98,0.01,,SKC,0.02,VWS V13.00,2013-11-17 18:34:00,
2013-11-17 12:39:00,65.0,64.4,29.86,SW,220,9.0,14.0,98,0.01,,SKC,0.02,VWS V13.00,2013-11-17 18:39:00,
2013-11-17 12:44:00,65.0,64.4,29.86,SSE,167,8.0,15.0,98,0.02,,SKC,0.03,VWS V13.00,2013-11-17 18:44:00,
2013-11-17 12:49:00,64.9,64.3,29.86,SSW,207,5.0,15.0,98,0.03,,SKC,0.04,VWS V13.00,2013-11-17 18:49:00,
2013-11-17 12:54:00,65.0,64.4,29.85,SSW,206,7.0,16.0,98,0.04,,SKC,0.05,VWS V13.00,2013-11-17 18:54:00,
2013-11-17 12:59:00,65.0,64.4,29.86,SSW,206,4.0,16.0,98,0.04,,SKC,0.05,VWS V13.00,2013-11-17 18:59:00,
2013-11-17 13:00:00,65.0,64.4,29.86,SSW,207,5.0,16.0,98,0.06,,SKC,0.07,VWS V13.00,2013-11-17 19:00:00,
2013-11-17 13:04:00,65.1,64.5,29.85,SSW,195,8.0,13.0,98,0.09,,SKC,0.11,VWS V13.00,2013-11-17 19:04:00,
2013-11-17 13:09:00,65.2,64.6,29.85,SW,219,10.0,18.0,98,0.14,,SKC,0.16,VWS V13.00,2013-11-17 19:09:00,
2013-11-17 13:14:00,65.2,64.6,29.84,South,189,5.0,18.0,98,0.20,,SKC,0.21,VWS V13.00,2013-11-17 19:14:00,
2013-11-17 13:19:00,65.3,65.0,29.83,SSW,196,8.0,18.0,99,0.20,,SKC,0.21,VWS V13.00,2013-11-17 19:19:00,
2013-11-17 13:24:00,65.4,65.1,29.83,SSW,209,9.0,18.0,99,0.20,,SKC,0.21,VWS V13.00,2013-11-17 19:24:00,
2013-11-17 13:29:00,65.5,65.2,29.83,SW,226,10.0,18.0,99,0.20,,SKC,0.21,VWS V13.00,2013-11-17 19:29:00,
2013-11-17 13:30:00,65.5,65.2,29.83,SSW,210,6.0,18.0,99,0.20,,SKC,0.21,VWS V13.00,2013-11-17 19:30:00,
2013-11-17 13:34:00,65.5,65.2,29.83,SW,227,9.0,11.0,99,0.19,,SKC,0.21,VWS V13.00,2013-11-17 19:34:00,
2013-11-17 13:39:00,65.5,65.2,29.83,SSW,211,11.0,12.0,99,0.19,,SKC,0.21,VWS V13.00,2013-11-17 19:39:00,
2013-11-17 13:44:00,65.6,65.3,29.83,SSW,202,8.0,13.0,99,0.19,,SKC,0.21,VWS V13.00,2013-11-17 19:44:00,
2013-11-17 13:49:00,65.6,65.3,29.83,SSW,202,6.0,13.0,99,0.19,,SKC,0.21,VWS V13.00,2013-11-17 19:49:00,
2013-11-17 13:55:00,65.7,65.4,29.83,SSW,205,6.0,13.0,99,0.19,,SKC,0.21,VWS V13.00,2013-11-17 19:55:00,
2013-11-17 14:00:00,65.8,65.5,29.83,SSE,165,9.0,13.0,99,0.19,,SKC,0.21,VWS V13.00,2013-11-17 20:00:00,
2013-11-17 14:05:00,65.8,65.5,29.83,SSW,209,4.0,11.0,99,0.14,,SKC,0.21,VWS V13.00,2013-11-17 20:05:00,
2013-11-17 14:10:00,65.8,65.5,29.84,South,180,2.0,11.0,99,0.15,,SKC,0.22,VWS V13.00,2013-11-17 20:10:00,
2013-11-17 14:15:00,66.0,65.7,29.83,SW,217,4.0,11.0,99,0.16,,SKC,0.23,VWS V13.00,2013-11-17 20:15:00,
2013-11-17 14:20:00,66.1,65.8,29.84,South,191,10.0,11.0,99,0.17,,SKC,0.24,VWS V13.00,2013-11-17 20:20:00,
2013-11-17 14:25:00,66.2,65.9,29.84,SSW,207,8.0,11.0,99,0.18,,SKC,0.25,VWS V13.00,2013-11-17 20:25:00,
2013-11-17 14:30:00,66.3,66.0,29.83,SSW,209,5.0,11.0,99,0.18,,SKC,0.25,VWS V13.00,2013-11-17 20:30:00,
2013-11-17 14:35:00,66.4,66.1,29.83,SSW,205,4.0,9.0,99,0.04,,SKC,0.25,VWS V13.00,2013-11-17 20:35:00,
2013-11-17 14:40:00,66.6,66.3,29.83,WSW,238,7.0,10.0,99,0.04,,SKC,0.25,VWS V13.00,2013-11-17 20:40:00,
2013-11-17 14:45:00,66.7,66.4,29.83,SW,236,3.0,13.0,99,0.05,,SKC,0.26,VWS V13.00,2013-11-17 20:45:00,
2013-11-17 14:49:00,66.8,66.5,29.83,SSW,207,9.0,13.0,99,0.05,,SKC,0.26,VWS V13.00,2013-11-17 20:49:00,
2013-11-17 14:54:00,66.8,66.5,29.83,SSW,198,8.0,13.0,99,0.05,,SKC,0.26,VWS V13.00,2013-11-17 20:54:00,
2013-11-17 14:59:00,66.8,66.5,29.83,SW,236,3.0,13.0,99,0.05,,SKC,0.26,VWS V13.00,2013-11-17 20:59:00,
2013-11-17 15:00:00,66.8,66.2,29.83,SSW,213,2.0,13.0,98,0.05,,SKC,0.26,VWS V13.00,2013-11-17 21:00:00,
2013-11-17 15:04:00,66.9,66.3,29.83,SSW,211,10.0,10.0,98,0.05,,SKC,0.26,VWS V13.00,2013-11-17 21:04:00,
2013-11-17 15:09:00,66.9,66.3,29.83,SSW,201,5.0,10.0,98,0.05,,SKC,0.26,VWS V13.00,2013-11-17 21:09:00,
2013-11-17 15:14:00,66.9,66.3,29.83,SSW,195,7.0,10.0,98,0.05,,SKC,0.26,VWS V13.00,2013-11-17 21:14:00,
2013-11-17 15:19:00,67.0,66.4,29.83,WSW,241,1.0,10.0,98,0.05,,SKC,0.26,VWS V13.00,2013-11-17 21:19:00,
2013-11-17 15:24:00,66.9,66.3,29.83,SW,226,4.0,10.0,98,0.05,,SKC,0.26,VWS V13.00,2013-11-17 21:24:00,
2013-11-17 15:29:00,67.0,66.4,29.83,SW,236,5.0,10.0,98,0.05,,SKC,0.26,VWS V13.00,2013-11-17 21:29:00,
2013-11-17 15:30:00,66.9,66.3,29.83,SSW,213,4.0,10.0,98,0.05,,SKC,0.26,VWS V13.00,2013-11-17 21:30:00,
2013-11-17 15:34:00,66.9,66.3,29.83,SSW,213,6.0,9.0,98,0.01,,SKC,0.26,VWS V13.00,2013-11-17 21:34:00,
2013-11-17 15:39:00,67.0,66.4,29.84,SW,231,4.0,12.0,98,0.01,,SKC,0.26,VWS V13.00,2013-11-17 21:39:00,
2013-11-17 15:44:00,67.0,66.4,29.84,SW,227,4.0,13.0,98,0.01,,SKC,0.26,VWS V13.00,2013-11-17 21:44:00,
2013-11-17 15:49:00,67.0,66.4,29.84,South,175,7.0,13.0,98,0.01,,SKC,0.26,VWS V13.00,2013-11-17 21:49:00,
2013-11-17 15:54:00,67.0,66.4,29.83,SSW,205,4.0,13.0,98,0.01,,SKC,0.26,VWS V13.00,2013-11-17 21:54:00,
2013-11-17 15:59:00,67.0,66.4,29.84,SSW,196,4.0,13.0,98,0.01,,SKC,0.26,VWS V13.00,2013-11-17 21:59:00,
2013-11-17 16:00:00,67.0,66.4,29.84,South,187,7.0,13.0,98,0.01,,SKC,0.26,VWS V13.00,2013-11-17 22:00:00,
2013-11-17 16:04:00,67.0,66.4,29.83,SW,217,4.0,10.0,98,0.00,,SKC,0.26,VWS V13.00,2013-11-17 22:04:00,
2013-11-17 16:09:00,67.1,66.5,29.84,SW,227,2.0,15.0,98,0.00,,SKC,0.26,VWS V13.00,2013-11-17 22:09:00,
2013-11-17 16:14:00,67.2,66.6,29.84,SW,229,7.0,15.0,98,0.00,,SKC,0.26,VWS V13.00,2013-11-17 22:14:00,
2013-11-17 16:19:00,67.2,66.6,29.84,SW,221,7.0,15.0,98,0.00,,SKC,0.26,VWS V13.00,2013-11-17 22:19:00,
2013-11-17 16:24:00,67.2,66.6,29.84,SW,221,2.0,15.0,98,0.00,,SKC,0.26,VWS V13.00,2013-11-17 22:24:00,
2013-11-17 16:29:00,67.2,66.6,29.84,SSW,207,5.0,15.0,98,0.00,,SKC,0.26,VWS V13.00,2013-11-17 22:29:00,
2013-11-17 16:30:00,67.3,66.7,29.84,SW,222,1.0,15.0,98,0.00,,SKC,0.26,VWS V13.00,2013-11-17 22:30:00,
2013-11-17 16:34:00,67.2,66.6,29.84,SW,225,6.0,9.0,98,0.00,,SKC,0.26,VWS V13.00,2013-11-17 22:34:00,
2013-11-17 16:39:00,67.3,66.7,29.84,SSW,202,6.0,10.0,98,0.00,,SKC,0.26,VWS V13.00,2013-11-17 22:39:00,
2013-11-17 16:44:00,67.4,66.8,29.84,SSW,210,1.0,10.0,98,0.00,,SKC,0.26,VWS V13.00,2013-11-17 22:44:00,
2013-11-17 16:49:00,67.4,66.8,29.84,SSW,197,5.0,10.0,98,0.01,,SKC,0.27,VWS V13.00,2013-11-17 22:49:00,
2013-11-17 16:54:00,67.4,66.8,29.85,SSW,204,4.0,11.0,98,0.01,,SKC,0.27,VWS V13.00,2013-11-17 22:54:00,
2013-11-17 16:59:00,67.4,66.8,29.85,South,190,7.0,11.0,98,0.01,,SKC,0.27,VWS V13.00,2013-11-17 22:59:00,
2013-11-17 17:00:00,67.4,66.8,29.85,SSW,198,4.0,11.0,98,0.01,,SKC,0.27,VWS V13.00,2013-11-17 23:00:00,
2013-11-17 17:04:00,67.5,66.9,29.85,SW,224,6.0,10.0,98,0.01,,SKC,0.27,VWS V13.00,2013-11-17 23:04:00,
2013-11-17 17:09:00,67.5,66.9,29.85,SSW,199,5.0,10.0,98,0.01,,SKC,0.27,VWS V13.00,2013-11-17 23:09:00,
2013-11-17 17:14:00,67.4,66.8,29.85,SW,223,5.0,10.0,98,0.01,,SKC,0.27,VWS V13.00,2013-11-17 23:14:00,
2013-11-17 17:23:00,67.5,66.9,29.85,SSW,204,4.0,10.0,98,0.01,,SKC,0.27,VWS V13.00,2013-11-17 23:23:00,
2013-11-17 17:30:00,67.5,66.9,29.86,South,189,5.0,5.0,98,0.00,,SKC,0.27,VWS V13.00,2013-11-17 23:30:00,
2013-11-17 17:35:00,67.5,66.9,29.86,SW,216,5.0,8.0,98,0.01,,SKC,0.27,VWS V13.00,2013-11-17 23:35:00,
2013-11-17 17:40:00,67.5,66.9,29.86,SSW,207,0.0,8.0,98,0.02,,SKC,0.28,VWS V13.00,2013-11-17 23:40:00,
2013-11-17 17:45:00,67.5,66.9,29.86,SSW,200,7.0,9.0,98,0.02,,SKC,0.28,VWS V13.00,2013-11-17 23:45:00,
2013-11-17 17:50:00,67.5,66.9,29.86,SW,227,6.0,9.0,98,0.02,,SKC,0.28,VWS V13.00,2013-11-17 23:50:00,
2013-11-17 17:55:00,67.6,67.3,29.86,SW,221,5.0,9.0,99,0.02,,SKC,0.28,VWS V13.00,2013-11-17 23:55:00,
2013-11-17 18:00:00,67.6,67.0,29.86,WSW,250,8.0,11.0,98,0.02,,SKC,0.28,VWS V13.00,2013-11-18 00:00:00,
2013-11-17 18:05:00,67.6,67.0,29.86,SW,216,6.0,9.0,98,0.01,,SKC,0.28,VWS V13.00,2013-11-18 00:05:00,
2013-11-17 18:10:00,67.7,67.1,29.86,SW,218,1.0,9.0,98,0.01,,SKC,0.28,VWS V13.00,2013-11-18 00:10:00,
2013-11-17 18:15:00,67.7,67.1,29.86,SW,218,4.0,9.0,98,0.01,,SKC,0.28,VWS V13.00,2013-11-18 00:15:00,
2013-11-17 18:20:00,67.7,67.1,29.86,SSW,204,5.0,11.0,98,0.01,,SKC,0.28,VWS V13.00,2013-11-18 00:20:00,
2013-11-17 18:25:00,67.7,67.1,29.86,WSW,238,6.0,11.0,98,0.01,,SKC,0.28,VWS V13.00,2013-11-18 00:25:00,
2013-11-17 18:30:00,67.8,67.2,29.86,SW,227,8.0,11.0,98,0.01,,SKC,0.28,VWS V13.00,2013-11-18 00:30:00,
2013-11-17 18:35:00,67.9,67.3,29.86,SW,234,2.0,10.0,98,0.01,,SKC,0.28,VWS V13.00,2013-11-18 00:35:00,
2013-11-17 18:40:00,67.9,67.6,29.86,SSW,206,1.0,11.0,99,0.01,,SKC,0.28,VWS V13.00,2013-11-18 00:40:00,
2013-11-17 18:45:00,68.0,67.7,29.86,SSW,210,2.0,11.0,99,0.01,,SKC,0.28,VWS V13.00,2013-11-18 00:45:00,
2013-11-17 18:50:00,68.0,67.7,29.86,SW,234,2.0,11.0,99,0.01,,SKC,0.28,VWS V13.00,2013-11-18 00:50:00,
2013-11-17 18:55:00,68.1,67.8,29.86,SW,215,8.0,11.0,99,0.01,,SKC,0.28,VWS V13.00,2013-11-18 00:55:00,
2013-11-17 19:00:00,68.1,67.8,29.86,SW,217,5.0,11.0,99,0.01,,SKC,0.28,VWS V13.00,2013-11-18 01:00:00,
2013-11-17 19:05:00,68.2,67.9,29.86,WSW,242,7.0,10.0,99,0.00,,SKC,0.28,VWS V13.00,2013-11-18 01:05:00,
2013-11-17 19:10:00,68.3,67.7,29.86,South,177,4.0,12.0,98,0.00,,SKC,0.28,VWS V13.00,2013-11-18 01:10:00,
2013-11-17 19:15:00,68.3,67.7,29.86,West,276,5.0,12.0,98,0.00,,SKC,0.28,VWS V13.00,2013-11-18 01:15:00,
2013-11-17 19:20:00,68.4,67.8,29.86,SW,234,5.0,12.0,98,0.01,,SKC,0.29,VWS V13.00,2013-11-18 01:20:00,
2013-11-17 19:25:00,68.5,67.9,29.86,SW,230,4.0,12.0,98,0.01,,SKC,0.29,VWS V13.00,2013-11-18 01:25:00,
2013-11-17 19:30:00,68.6,68.0,29.86,SSW,208,6.0,12.0,98,0.01,,SKC,0.29,VWS V13.00,2013-11-18 01:30:00,
2013-11-17 19:35:00,68.6,68.0,29.87,SW,214,5.0,7.0,98,0.01,,SKC,0.29,VWS V13.00,2013-11-18 01:35:00,
2013-11-17 19:40:00,68.7,68.1,29.86,SSW,198,4.0,9.0,98,0.01,,SKC,0.29,VWS V13.00,2013-11-18 01:40:00,
2013-11-17 19:45:00,68.8,68.2,29.86,WSW,242,8.0,12.0,98,0.01,,SKC,0.29,VWS V13.00,2013-11-18 01:45:00,
2013-11-17 19:50:00,68.8,68.2,29.86,South,187,4.0,12.0,98,0.01,,SKC,0.29,VWS V13.00,2013-11-18 01:50:00,
2013-11-17 19:55:00,68.9,68.3,29.87,WSW,253,2.0,12.0,98,0.01,,SKC,0.29,VWS V13.00,2013-11-18 01:55:00,
2013-11-17 20:00:00,69.0,68.4,29.87,West,263,5.0,12.0,98,0.01,,SKC,0.29,VWS V13.00,2013-11-18 02:00:00,
2013-11-17 20:05:00,69.0,68.4,29.87,SW,217,0.0,11.0,98,0.01,,SKC,0.29,VWS V13.00,2013-11-18 02:05:00,
2013-11-17 20:10:00,69.0,68.4,29.87,SSW,196,4.0,11.0,98,0.01,,SKC,0.29,VWS V13.00,2013-11-18 02:10:00,
2013-11-17 20:15:00,69.0,68.4,29.87,WSW,258,2.0,11.0,98,0.01,,SKC,0.29,VWS V13.00,2013-11-18 02:15:00,
2013-11-17 20:20:00,69.1,68.5,29.87,SW,232,7.0,11.0,98,0.01,,SKC,0.29,VWS V13.00,2013-11-18 02:20:00,
2013-11-17 20:25:00,69.1,68.5,29.87,SW,229,6.0,12.0,98,0.01,,SKC,0.29,VWS V13.00,2013-11-18 02:25:00,
2013-11-17 20:30:00,69.2,68.6,29.87,West,271,7.0,14.0,98,0.01,,SKC,0.29,VWS V13.00,2013-11-18 02:30:00,
2013-11-17 20:35:00,69.2,68.6,29.87,WSW,252,9.0,9.0,98,0.00,,SKC,0.29,VWS V13.00,2013-11-18 02:35:00,
2013-11-17 20:40:00,69.3,68.7,29.87,WSW,238,7.0,14.0,98,0.00,,SKC,0.29,VWS V13.00,2013-11-18 02:40:00,
2013-11-17 20:45:00,69.3,68.7,29.86,SW,227,7.0,14.0,98,0.00,,SKC,0.29,VWS V13.00,2013-11-18 02:45:00,
2013-11-17 20:50:00,69.3,68.7,29.86,SW,231,9.0,14.0,98,0.00,,SKC,0.29,VWS V13.00,2013-11-18 02:50:00,
2013-11-17 20:55:00,69.4,68.8,29.86,WSW,242,5.0,15.0,98,0.00,,SKC,0.29,VWS V13.00,2013-11-18 02:55:00,
2013-11-17 21:00:00,69.4,68.5,29.86,SW,223,8.0,15.0,97,0.00,,SKC,0.29,VWS V13.00,2013-11-18 03:00:00,
2013-11-17 21:05:00,69.4,68.5,29.87,WSW,244,0.0,7.0,97,0.00,,SKC,0.29,VWS V13.00,2013-11-18 03:05:00,
2013-11-17 21:10:00,69.5,68.6,29.87,WSW,257,2.0,10.0,97,0.00,,SKC,0.29,VWS V13.00,2013-11-18 03:10:00,
2013-11-17 21:15:00,69.5,68.6,29.87,WSW,251,6.0,11.0,97,0.00,,SKC,0.29,VWS V13.00,2013-11-18 03:15:00,
2013-11-17 21:20:00,69.5,68.6,29.87,WSW,257,5.0,11.0,97,0.00,,SKC,0.29,VWS V13.00,2013-11-18 03:20:00,
2013-11-17 21:25:00,69.6,68.7,29.88,WSW,252,3.0,11.0,97,0.00,,SKC,0.29,VWS V13.00,2013-11-18 03:25:00,
2013-11-17 21:30:00,69.6,68.7,29.87,West,259,2.0,11.0,97,0.00,,SKC,0.29,VWS V13.00,2013-11-18 03:30:00,
2013-11-17 21:35:00,69.6,68.7,29.87,WSW,257,0.0,9.0,97,0.00,,SKC,0.29,VWS V13.00,2013-11-18 03:35:00,
2013-11-17 21:40:00,69.7,68.8,29.87,West,273,6.0,12.0,97,0.00,,SKC,0.29,VWS V13.00,2013-11-18 03:40:00,
2013-11-17 21:45:00,69.8,69.2,29.87,West,271,1.0,12.0,98,0.00,,SKC,0.29,VWS V13.00,2013-11-18 03:45:00,
2013-11-17 21:50:00,69.8,68.9,29.88,WSW,245,1.0,12.0,97,0.00,,SKC,0.29,VWS V13.00,2013-11-18 03:50:00,
2013-11-17 21:55:00,69.9,69.0,29.88,West,263,8.0,12.0,97,0.00,,SKC,0.29,VWS V13.00,2013-11-18 03:55:00,
2013-11-17 22:00:00,69.9,69.0,29.88,West,269,6.0,13.0,97,0.00,,SKC,0.29,VWS V13.00,2013-11-18 04:00:00,
2013-11-17 22:05:00,70.0,69.1,29.87,WNW,286,6.0,6.0,97,0.00,,SKC,0.29,VWS V13.00,2013-11-18 04:05:00,
2013-11-17 22:10:00,69.9,69.0,29.88,WSW,248,2.0,8.0,97,0.00,,SKC,0.29,VWS V13.00,2013-11-18 04:10:00,
2013-11-17 22:15:00,70.0,69.1,29.87,WSW,237,6.0,14.0,97,0.00,,SKC,0.29,VWS V13.00,2013-11-18 04:15:00,
2013-11-17 22:20:00,70.0,69.1,29.87,WNW,284,2.0,14.0,97,0.00,,SKC,0.29,VWS V13.00,2013-11-18 04:20:00,
2013-11-17 22:25:00,70.0,69.1,29.87,West,266,6.0,14.0,97,0.00,,SKC,0.29,VWS V13.00,2013-11-18 04:25:00,
2013-11-17 22:29:00,70.0,69.1,29.87,WSW,250,5.0,14.0,97,0.00,,SKC,0.29,VWS V13.00,2013-11-18 04:29:00,
2013-11-17 22:34:00,69.9,69.0,29.87,WSW,237,6.0,8.0,97,0.00,,SKC,0.29,VWS V13.00,2013-11-18 04:34:00,
2013-11-17 22:39:00,69.9,69.0,29.87,WSW,257,8.0,8.0,97,0.00,,SKC,0.29,VWS V13.00,2013-11-18 04:39:00,
2013-11-17 22:44:00,69.9,69.0,29.86,SW,236,4.0,10.0,97,0.00,,SKC,0.29,VWS V13.00,2013-11-18 04:44:00,
2013-11-17 22:49:00,69.9,69.0,29.87,WNW,287,6.0,10.0,97,0.00,,SKC,0.29,VWS V13.00,2013-11-18 04:49:00,
2013-11-17 22:54:00,69.9,69.0,29.87,WSW,240,6.0,13.0,97,0.00,,SKC,0.29,VWS V13.00,2013-11-18 04:54:00,
2013-11-17 22:59:00,69.9,69.0,29.87,West,261,5.0,13.0,97,0.00,,SKC,0.29,VWS V13.00,2013-11-18 04:59:00,
2013-11-17 23:01:00,69.9,69.0,29.87,West,267,6.0,13.0,97,0.00,,SKC,0.29,VWS V13.00,2013-11-18 05:01:00,
2013-11-17 23:06:00,70.0,69.1,29.87,West,263,4.0,11.0,97,0.00,,SKC,0.29,VWS V13.00,2013-11-18 05:06:00,
2013-11-17 23:11:00,70.0,69.1,29.88,West,265,5.0,11.0,97,0.00,,SKC,0.29,VWS V13.00,2013-11-18 05:11:00,
2013-11-17 23:16:00,70.0,69.1,29.88,West,260,3.0,12.0,97,0.00,,SKC,0.29,VWS V13.00,2013-11-18 05:16:00,
2013-11-17 23:21:00,70.0,69.1,29.88,WNW,290,4.0,13.0,97,0.00,,SKC,0.29,VWS V13.00,2013-11-18 05:21:00,
2013-11-17 23:26:00,70.1,69.2,29.88,WNW,284,1.0,14.0,97,0.00,,SKC,0.29,VWS V13.00,2013-11-18 05:26:00,
2013-11-17 23:31:00,70.1,69.2,29.87,NW,311,4.0,14.0,97,0.00,,SKC,0.29,VWS V13.00,2013-11-18 05:31:00,
2013-11-17 23:36:00,70.0,69.1,29.87,WNW,289,3.0,13.0,97,0.00,,SKC,0.29,VWS V13.00,2013-11-18 05:36:00,
2013-11-17 23:41:00,70.0,69.1,29.87,West,263,5.0,13.0,97,0.00,,SKC,0.29,VWS V13.00,2013-11-18 05:41:00,
2013-11-17 23:46:00,70.0,69.1,29.87,WNW,284,11.0,13.0,97,0.00,,SKC,0.29,VWS V13.00,2013-11-18 05:46:00,
2013-11-17 23:51:00,70.0,69.1,29.87,WNW,283,4.0,13.0,97,0.00,,SKC,0.29,VWS V13.00,2013-11-18 05:51:00,
2013-11-17 23:56:00,70.0,69.1,29.87,West,271,2.0,13.0,97,0.00,,SKC,0.29,VWS V13.00,2013-11-18 05:56:00,